This is the latest recevied weather packets stored in our database for station/object KC1TWD. If no packets are shown the sender has not sent any weather packets the latest 10 day(s).
| Time | Temp. | Humidity | Pressure | Rain* | Wind** | Luminosity | Snow |
|---|---|---|---|---|---|---|---|
| 1777903808 | 16.67° C | 42% | 1007.8 hPa | 0 mm | - | - | - |
| 1777903505 | 16.67° C | 41% | 1008.1 hPa | 0 mm | - | - | - |
| 1777903201 | 16.11° C | 41% | 1008.1 hPa | 0 mm | - | - | - |
| 1777902897 | 16.11° C | 41% | 1008.3 hPa | 0 mm | - | - | - |
| 1777902589 | 16.11° C | 41% | 1008.3 hPa | 0 mm | - | - | - |
| 1777902286 | 16.11° C | 43% | 1008.4 hPa | 0 mm | - | - | - |
| 1777901983 | 15.56° C | 43% | 1008.4 hPa | 0 mm | - | - | - |
| 1777901682 | 15° C | 46% | 1008.5 hPa | 0 mm | - | - | - |
| 1777901378 | 15° C | 47% | 1008.4 hPa | 0 mm | - | - | - |
| 1777901076 | 14.44° C | 46% | 1008.6 hPa | 0 mm | - | - | - |
| 1777900773 | 14.44° C | 45% | 1008.5 hPa | 0 mm | - | - | - |
| 1777900471 | 14.44° C | 45% | 1008.6 hPa | 0 mm | - | - | - |
| 1777900168 | 14.44° C | 47% | 1008.6 hPa | 0 mm | - | - | - |
| 1777899864 | 14.44° C | 46% | 1008.7 hPa | 0 mm | - | - | - |
| 1777899561 | 13.89° C | 47% | 1008.6 hPa | 0 mm | - | - | - |
| 1777899258 | 13.89° C | 50% | 1009 hPa | 0 mm | - | - | - |
| 1777898956 | 13.33° C | 48% | 1008.8 hPa | 0 mm | - | - | - |
| 1777898652 | 13.33° C | 51% | 1009.2 hPa | 0 mm | - | - | - |
| 1777898350 | 12.78° C | 50% | 1009.1 hPa | 0 mm | - | - | - |
| 1777898048 | 12.78° C | 53% | 1009 hPa | 0 mm | - | - | - |
| 1777897743 | 12.22° C | 52% | 1009 hPa | 0 mm | - | - | - |
| 1777897440 | 12.22° C | 54% | 1009 hPa | 0 mm | - | - | - |
| 1777897136 | 11.67° C | 56% | 1009.1 hPa | 0 mm | - | - | - |
| 1777896832 | 11.67° C | 56% | 1009.1 hPa | 0 mm | - | - | - |
| 1777896530 | 11.11° C | 56% | 1009.2 hPa | 0 mm | - | - | - |
* Rain latest hour (hover to see other rain measurements)
** Current wind speed in m/s (hover to see current wind gust speed)